This is the latest recevied weather packets stored in our database for station/object KE0WPC. If no packets are shown the sender has not sent any weather packets the latest 10 day(s).
| Time | Temp. | Humidity | Pressure | Rain* | Wind** | Luminosity | Snow |
|---|---|---|---|---|---|---|---|
| 1777737360 | 15.56° C | 46% | 1018.2 hPa | - | - | - | - |
| 1777737056 | 15.56° C | 46% | 1018.7 hPa | - | - | - | - |
| 1777736752 | 15° C | 48% | 1018.7 hPa | - | - | - | - |
| 1777736124 | 14.44° C | 49% | 1018.7 hPa | - | - | - | - |
| 1777735816 | 13.89° C | 50% | 1019 hPa | - | - | - | - |
| 1777735514 | 13.33° C | 50% | 1018.7 hPa | - | - | - | - |
| 1777735211 | 13.33° C | 50% | 1019 hPa | - | - | - | - |
| 1777734908 | 12.78° C | 52% | 1018.7 hPa | - | - | - | - |
| 1777734604 | 12.78° C | 53% | 1019 hPa | - | - | - | - |
| 1777734302 | 12.22° C | 53% | 1019 hPa | - | - | - | - |
| 1777733997 | 11.67° C | 53% | 1019 hPa | - | - | - | - |
| 1777733694 | 11.67° C | 53% | 1019.4 hPa | - | - | - | - |
| 1777733391 | 11.11° C | 53% | 1019.4 hPa | - | - | - | - |
| 1777733087 | 11.11° C | 54% | 1019.4 hPa | - | - | - | - |
| 1777732783 | 10.56° C | 54% | 1019.4 hPa | - | - | - | - |
| 1777732481 | 10.56° C | 55% | 1019.4 hPa | - | - | - | - |
| 1777732178 | 10° C | 55% | 1019.4 hPa | - | - | - | - |
| 1777731875 | 9.44° C | 55% | 1019.4 hPa | - | - | - | - |
| 1777731572 | 9.44° C | 55% | 1019.4 hPa | - | - | - | - |
| 1777731269 | 8.89° C | 56% | 1019.4 hPa | - | - | - | - |
| 1777730967 | 8.89° C | 57% | 1019.4 hPa | - | - | - | - |
| 1777730666 | 8.33° C | 56% | 1019.4 hPa | - | - | - | - |
| 1777730361 | 8.33° C | 56% | 1019.7 hPa | - | - | - | - |
| 1777730057 | 8.33° C | 56% | 1019.4 hPa | - | - | - | - |
| 1777729753 | 7.78° C | 56% | 1019.7 hPa | - | - | - | - |
* Rain since midnight (hover to see other rain measurements)
** Current wind speed in m/s (hover to see current wind gust speed)